Time,TemperatureF,DewpointF,PressureIn,WindDirection,WindDirectionDegrees,WindSpeedMPH,WindSpeedGustMPH,Humidity,HourlyPrecipIn,Conditions,Clouds,dailyrainin,SoftwareType,DateUTC
2013-03-26 00:01:00,34.9,22.0,30.10,West,274,0.0,-999.0,59,0.00,,,0.00,Wunderground v.1.12,2013-03-26 04:01:00,
2013-03-26 00:05:00,34.7,21.8,30.10,West,276,0.0,-999.0,59,0.00,,,0.00,Wunderground v.1.12,2013-03-26 04:05:00,
2013-03-26 00:06:00,34.7,21.8,30.10,West,276,0.0,-999.0,59,0.00,,,0.00,Wunderground v.1.12,2013-03-26 04:06:00,
2013-03-26 00:12:00,34.7,22.2,30.10,West,276,2.0,-999.0,60,0.00,,,0.00,Wunderground v.1.12,2013-03-26 04:12:00,
2013-03-26 00:18:00,34.6,22.1,30.10,West,276,0.0,-999.0,60,0.00,,,0.00,Wunderground v.1.12,2013-03-26 04:18:00,
2013-03-26 00:23:00,34.6,22.1,30.10,WNW,288,0.0,-999.0,60,0.00,,,0.00,Wunderground v.1.12,2013-03-26 04:23:00,
2013-03-26 00:28:00,34.4,22.3,30.09,WNW,287,0.0,-999.0,61,0.00,,,0.00,Wunderground v.1.12,2013-03-26 04:28:00,
2013-03-26 00:34:00,34.3,22.6,30.09,West,276,6.0,-999.0,62,0.00,,,0.00,Wunderground v.1.12,2013-03-26 04:34:00,
2013-03-26 00:39:00,34.1,22.4,30.09,West,278,0.0,-999.0,62,0.00,,,0.00,Wunderground v.1.12,2013-03-26 04:39:00,
2013-03-26 00:45:00,34.0,22.3,30.09,West,270,0.0,-999.0,62,0.00,,,0.00,Wunderground v.1.12,2013-03-26 04:45:00,
2013-03-26 00:50:00,33.8,22.1,30.09,SSE,163,0.0,-999.0,62,0.00,,,0.00,Wunderground v.1.12,2013-03-26 04:50:00,
2013-03-26 00:56:00,33.7,22.1,30.10,WNW,300,0.0,-999.0,62,0.00,,,0.00,Wunderground v.1.12,2013-03-26 04:56:00,
2013-03-26 01:01:00,33.7,22.1,30.10,WNW,286,0.0,-999.0,62,0.00,,,0.00,Wunderground v.1.12,2013-03-26 05:01:00,
2013-03-26 01:06:00,33.5,22.2,30.10,SW,236,1.0,-999.0,63,0.00,,,0.00,Wunderground v.1.12,2013-03-26 05:06:00,
2013-03-26 01:12:00,33.5,22.2,30.10,WSW,249,0.0,-999.0,63,0.00,,,0.00,Wunderground v.1.12,2013-03-26 05:12:00,
2013-03-26 01:18:00,33.4,22.5,30.10,West,269,0.0,-999.0,64,0.00,,,0.00,Wunderground v.1.12,2013-03-26 05:18:00,
2013-03-26 01:23:00,33.4,22.5,30.10,West,273,0.0,-999.0,64,0.00,,,0.00,Wunderground v.1.12,2013-03-26 05:23:00,
2013-03-26 01:28:00,33.4,22.5,30.10,NW,325,0.0,-999.0,64,0.00,,,0.00,Wunderground v.1.12,2013-03-26 05:28:00,
2013-03-26 01:33:00,33.2,22.7,30.10,NW,310,0.0,-999.0,65,0.00,,,0.00,Wunderground v.1.12,2013-03-26 05:33:00,
2013-03-26 01:39:00,33.2,22.7,30.10,WNW,298,0.0,-999.0,65,0.00,,,0.00,Wunderground v.1.12,2013-03-26 05:39:00,
2013-03-26 01:44:00,33.1,22.6,30.10,WNW,295,1.0,-999.0,65,0.00,,,0.00,Wunderground v.1.12,2013-03-26 05:44:00,
2013-03-26 01:50:00,33.1,22.6,30.10,NW,305,0.0,-999.0,65,0.00,,,0.00,Wunderground v.1.12,2013-03-26 05:50:00,
2013-03-26 01:56:00,32.9,22.4,30.10,WNW,286,0.0,-999.0,65,0.00,,,0.00,Wunderground v.1.12,2013-03-26 05:56:00,
2013-03-26 02:01:00,32.9,22.4,30.10,WNW,286,0.0,-999.0,65,0.00,,,0.00,Wunderground v.1.12,2013-03-26 06:01:00,
2013-03-26 02:07:00,32.9,22.4,30.10,WNW,284,0.0,-999.0,65,0.00,,,0.00,Wunderground v.1.12,2013-03-26 06:07:00,
2013-03-26 02:12:00,32.8,22.7,30.10,WNW,291,0.0,-999.0,66,0.00,,,0.00,Wunderground v.1.12,2013-03-26 06:12:00,
2013-03-26 02:17:00,32.8,22.7,30.10,WNW,291,0.0,-999.0,66,0.00,,,0.00,Wunderground v.1.12,2013-03-26 06:17:00,
2013-03-26 02:22:00,32.8,22.7,30.10,WNW,290,0.0,-999.0,66,0.00,,,0.00,Wunderground v.1.12,2013-03-26 06:22:00,
2013-03-26 02:27:00,32.7,22.6,30.10,WNW,283,0.0,-999.0,66,0.00,,,0.00,Wunderground v.1.12,2013-03-26 06:27:00,
2013-03-26 02:32:00,32.7,22.9,30.10,WNW,283,0.0,-999.0,67,0.00,,,0.00,Wunderground v.1.12,2013-03-26 06:32:00,
2013-03-26 02:37:00,32.5,22.8,30.10,WNW,283,0.0,-999.0,67,0.00,,,0.00,Wunderground v.1.12,2013-03-26 06:37:00,
2013-03-26 02:42:00,32.5,22.8,30.10,WNW,283,0.0,-999.0,67,0.00,,,0.00,Wunderground v.1.12,2013-03-26 06:42:00,
2013-03-26 02:47:00,32.5,23.1,30.10,WNW,283,0.0,-999.0,68,0.00,,,0.00,Wunderground v.1.12,2013-03-26 06:47:00,
2013-03-26 02:52:00,32.4,23.0,30.10,WNW,283,0.0,-999.0,68,0.00,,,0.00,Wunderground v.1.12,2013-03-26 06:52:00,
2013-03-26 02:57:00,32.5,23.5,30.09,WNW,283,0.0,-999.0,69,0.00,,,0.00,Wunderground v.1.12,2013-03-26 06:57:00,
2013-03-26 03:03:00,32.5,23.5,30.09,West,269,0.0,-999.0,69,0.00,,,0.00,Wunderground v.1.12,2013-03-26 07:03:00,
2013-03-26 03:08:00,32.7,23.6,30.09,West,281,0.0,-999.0,69,0.00,,,0.00,Wunderground v.1.12,2013-03-26 07:08:00,
2013-03-26 03:13:00,32.7,23.6,30.09,West,274,0.0,-999.0,69,0.00,,,0.00,Wunderground v.1.12,2013-03-26 07:13:00,
2013-03-26 03:18:00,32.7,23.6,30.09,West,270,0.0,-999.0,69,0.00,,,0.00,Wunderground v.1.12,2013-03-26 07:18:00,
2013-03-26 03:24:00,32.8,23.7,30.09,West,270,0.0,-999.0,69,0.00,,,0.00,Wunderground v.1.12,2013-03-26 07:24:00,
2013-03-26 03:29:00,32.8,23.7,30.08,West,263,0.0,-999.0,69,0.00,,,0.00,Wunderground v.1.12,2013-03-26 07:29:00,
2013-03-26 03:34:00,32.9,23.8,30.08,WNW,288,2.0,-999.0,69,0.00,,,0.00,Wunderground v.1.12,2013-03-26 07:34:00,
2013-03-26 03:39:00,32.9,23.8,30.08,NW,308,0.0,-999.0,69,0.00,,,0.00,Wunderground v.1.12,2013-03-26 07:39:00,
2013-03-26 03:44:00,32.9,23.8,30.08,WNW,284,0.0,-999.0,69,0.00,,,0.00,Wunderground v.1.12,2013-03-26 07:44:00,
2013-03-26 03:49:00,32.9,23.8,30.08,WNW,286,0.0,-999.0,69,0.00,,,0.00,Wunderground v.1.12,2013-03-26 07:49:00,
2013-03-26 03:54:00,32.9,23.8,30.08,WNW,286,0.0,-999.0,69,0.00,,,0.00,Wunderground v.1.12,2013-03-26 07:54:00,
2013-03-26 03:59:00,32.9,24.2,30.07,WNW,295,3.0,-999.0,70,0.00,,,0.00,Wunderground v.1.12,2013-03-26 07:59:00,
2013-03-26 04:04:00,32.9,24.2,30.07,West,273,0.0,-999.0,70,0.00,,,0.00,Wunderground v.1.12,2013-03-26 08:04:00,
2013-03-26 04:09:00,32.9,24.2,30.07,West,274,0.0,-999.0,70,0.00,,,0.00,Wunderground v.1.12,2013-03-26 08:09:00,
2013-03-26 04:14:00,32.9,24.2,30.07,West,274,0.0,-999.0,70,0.00,,,0.00,Wunderground v.1.12,2013-03-26 08:14:00,
2013-03-26 04:19:00,32.9,24.5,30.07,West,276,0.0,-999.0,71,0.00,,,0.00,Wunderground v.1.12,2013-03-26 08:19:00,
2013-03-26 04:24:00,32.9,24.2,30.07,West,276,0.0,-999.0,70,0.00,,,0.00,Wunderground v.1.12,2013-03-26 08:24:00,
2013-03-26 04:29:00,32.9,24.5,30.07,West,277,0.0,-999.0,71,0.00,,,0.00,Wunderground v.1.12,2013-03-26 08:29:00,
2013-03-26 04:34:00,32.9,24.5,30.07,West,277,0.0,-999.0,71,0.00,,,0.00,Wunderground v.1.12,2013-03-26 08:34:00,
2013-03-26 04:39:00,32.9,24.5,30.07,West,276,0.0,-999.0,71,0.00,,,0.00,Wunderground v.1.12,2013-03-26 08:39:00,
2013-03-26 04:44:00,32.9,24.5,30.07,West,276,0.0,-999.0,71,0.00,,,0.00,Wunderground v.1.12,2013-03-26 08:44:00,
2013-03-26 04:49:00,32.9,24.5,30.07,WNW,283,0.0,-999.0,71,0.00,,,0.00,Wunderground v.1.12,2013-03-26 08:49:00,
2013-03-26 04:54:00,32.9,24.5,30.07,WNW,283,0.0,-999.0,71,0.00,,,0.00,Wunderground v.1.12,2013-03-26 08:54:00,
2013-03-26 04:59:00,32.8,24.4,30.07,West,273,0.0,-999.0,71,0.00,,,0.00,Wunderground v.1.12,2013-03-26 08:59:00,
2013-03-26 05:04:00,32.8,24.8,30.07,West,273,0.0,-999.0,72,0.00,,,0.00,Wunderground v.1.12,2013-03-26 09:04:00,
2013-03-26 05:09:00,32.8,24.8,30.07,SW,236,0.0,-999.0,72,0.00,,,0.00,Wunderground v.1.12,2013-03-26 09:09:00,
2013-03-26 05:14:00,32.7,24.7,30.07,WSW,243,0.0,-999.0,72,0.00,,,0.00,Wunderground v.1.12,2013-03-26 09:14:00,
2013-03-26 05:19:00,32.7,24.7,30.07,WSW,243,0.0,-999.0,72,0.00,,,0.00,Wunderground v.1.12,2013-03-26 09:19:00,
2013-03-26 05:24:00,32.5,24.5,30.07,West,273,0.0,-999.0,72,0.00,,,0.00,Wunderground v.1.12,2013-03-26 09:24:00,
2013-03-26 05:29:00,32.5,24.5,30.07,West,273,0.0,-999.0,72,0.00,,,0.00,Wunderground v.1.12,2013-03-26 09:29:00,
2013-03-26 05:34:00,32.5,24.8,30.07,West,273,5.0,-999.0,73,0.00,,,0.00,Wunderground v.1.12,2013-03-26 09:34:00,
2013-03-26 05:39:00,32.5,24.8,30.07,West,274,0.0,-999.0,73,0.00,,,0.00,Wunderground v.1.12,2013-03-26 09:39:00,
2013-03-26 05:44:00,32.5,24.8,30.07,SE,142,1.0,-999.0,73,0.00,,,0.00,Wunderground v.1.12,2013-03-26 09:44:00,
2013-03-26 05:49:00,32.5,24.8,30.07,SW,216,0.0,-999.0,73,0.00,,,0.00,Wunderground v.1.12,2013-03-26 09:49:00,
2013-03-26 05:54:00,32.5,24.8,30.07,SW,232,0.0,-999.0,73,0.00,,,0.00,Wunderground v.1.12,2013-03-26 09:54:00,
2013-03-26 05:59:00,32.5,24.8,30.07,WSW,257,0.0,-999.0,73,0.00,,,0.00,Wunderground v.1.12,2013-03-26 09:59:00,
2013-03-26 06:04:00,32.5,24.8,30.07,West,260,0.0,-999.0,73,0.00,,,0.00,Wunderground v.1.12,2013-03-26 10:04:00,
2013-03-26 06:09:00,32.5,24.8,30.07,WSW,257,0.0,-999.0,73,0.00,,,0.00,Wunderground v.1.12,2013-03-26 10:09:00,
2013-03-26 06:14:00,32.5,24.8,30.08,West,277,0.0,-999.0,73,0.00,,,0.00,Wunderground v.1.12,2013-03-26 10:14:00,
2013-03-26 06:19:00,32.5,24.8,30.08,SW,226,0.0,-999.0,73,0.00,,,0.00,Wunderground v.1.12,2013-03-26 10:19:00,
2013-03-26 06:24:00,32.7,25.0,30.08,SW,226,0.0,-999.0,73,0.00,,,0.00,Wunderground v.1.12,2013-03-26 10:24:00,
2013-03-26 06:29:00,32.7,25.0,30.08,West,270,0.0,-999.0,73,0.00,,,0.00,Wunderground v.1.12,2013-03-26 10:29:00,
2013-03-26 06:34:00,32.7,25.0,30.08,West,270,0.0,-999.0,73,0.00,,,0.00,Wunderground v.1.12,2013-03-26 10:34:00,
2013-03-26 06:39:00,32.7,25.0,30.08,West,270,0.0,-999.0,73,0.00,,,0.00,Wunderground v.1.12,2013-03-26 10:39:00,
2013-03-26 06:44:00,32.7,25.0,30.08,West,280,0.0,-999.0,73,0.00,,,0.00,Wunderground v.1.12,2013-03-26 10:44:00,
2013-03-26 06:49:00,32.7,25.3,30.08,West,277,0.0,-999.0,74,0.00,,,0.00,Wunderground v.1.12,2013-03-26 10:49:00,
2013-03-26 06:54:00,32.8,25.4,30.08,WNW,294,1.0,-999.0,74,0.00,,,0.00,Wunderground v.1.12,2013-03-26 10:54:00,
2013-03-26 06:59:00,32.8,25.4,30.09,WNW,294,0.0,-999.0,74,0.00,,,0.00,Wunderground v.1.12,2013-03-26 10:59:00,
2013-03-26 07:05:00,32.8,25.4,30.09,WNW,294,0.0,-999.0,74,0.00,,,0.00,Wunderground v.1.12,2013-03-26 11:05:00,
2013-03-26 07:10:00,32.8,25.4,30.09,WNW,293,0.0,-999.0,74,0.00,,,0.00,Wunderground v.1.12,2013-03-26 11:10:00,
2013-03-26 07:15:00,32.9,25.5,30.09,WNW,288,0.0,-999.0,74,0.00,,,0.00,Wunderground v.1.12,2013-03-26 11:15:00,
2013-03-26 07:20:00,32.9,25.5,30.09,West,270,1.0,-999.0,74,0.00,,,0.00,Wunderground v.1.12,2013-03-26 11:20:00,
2013-03-26 07:25:00,32.9,25.5,30.09,West,270,0.0,-999.0,74,0.00,,,0.00,Wunderground v.1.12,2013-03-26 11:25:00,
2013-03-26 07:30:00,32.9,25.8,30.09,West,276,0.0,-999.0,75,0.00,,,0.00,Wunderground v.1.12,2013-03-26 11:30:00,
2013-03-26 07:35:00,32.9,25.8,30.09,WNW,300,0.0,-999.0,75,0.00,,,0.00,Wunderground v.1.12,2013-03-26 11:35:00,
2013-03-26 07:40:00,32.9,25.8,30.09,WNW,300,0.0,-999.0,75,0.00,,,0.00,Wunderground v.1.12,2013-03-26 11:40:00,
2013-03-26 07:45:00,32.9,25.8,30.10,WNW,284,0.0,-999.0,75,0.00,,,0.00,Wunderground v.1.12,2013-03-26 11:45:00,
2013-03-26 07:50:00,32.9,26.2,30.10,WNW,286,0.0,-999.0,76,0.00,,,0.00,Wunderground v.1.12,2013-03-26 11:50:00,
2013-03-26 07:55:00,32.9,26.5,30.10,WNW,286,0.0,-999.0,77,0.00,,,0.00,Wunderground v.1.12,2013-03-26 11:55:00,
2013-03-26 08:00:00,32.9,26.5,30.10,WNW,288,0.0,-999.0,77,0.00,,,0.00,Wunderground v.1.12,2013-03-26 12:00:00,
2013-03-26 08:05:00,32.9,26.8,30.10,WNW,286,0.0,-999.0,78,0.00,,,0.00,Wunderground v.1.12,2013-03-26 12:05:00,
2013-03-26 08:10:00,32.9,26.8,30.10,NW,312,0.0,-999.0,78,0.00,,,0.00,Wunderground v.1.12,2013-03-26 12:10:00,
2013-03-26 08:15:00,32.9,26.8,30.11,WNW,286,0.0,-999.0,78,0.00,,,0.00,Wunderground v.1.12,2013-03-26 12:15:00,
2013-03-26 08:20:00,32.9,26.8,30.11,WNW,284,0.0,-999.0,78,0.00,,,0.00,Wunderground v.1.12,2013-03-26 12:20:00,
2013-03-26 08:25:00,32.9,26.8,30.11,NW,308,2.0,-999.0,78,0.00,,,0.00,Wunderground v.1.12,2013-03-26 12:25:00,
2013-03-26 08:30:00,33.1,26.7,30.12,NW,307,0.0,-999.0,77,0.00,,,0.00,Wunderground v.1.12,2013-03-26 12:30:00,
2013-03-26 08:35:00,33.1,26.7,30.12,West,281,0.0,-999.0,77,0.00,,,0.00,Wunderground v.1.12,2013-03-26 12:35:00,
2013-03-26 08:40:00,33.2,26.8,30.12,NW,312,0.0,-999.0,77,0.00,,,0.00,Wunderground v.1.12,2013-03-26 12:40:00,
2013-03-26 08:45:00,33.2,26.8,30.13,WNW,295,0.0,-999.0,77,0.00,,,0.00,Wunderground v.1.12,2013-03-26 12:45:00,
2013-03-26 08:50:00,33.2,26.5,30.13,WNW,286,0.0,-999.0,76,0.00,,,0.00,Wunderground v.1.12,2013-03-26 12:50:00,
2013-03-26 08:55:00,33.4,26.6,30.13,WNW,284,0.0,-999.0,76,0.00,,,0.00,Wunderground v.1.12,2013-03-26 12:55:00,
2013-03-26 09:00:00,33.4,27.0,30.14,West,281,2.0,-999.0,77,0.00,,,0.00,Wunderground v.1.12,2013-03-26 13:00:00,
2013-03-26 09:05:00,33.5,26.7,30.14,WNW,287,0.0,-999.0,76,0.00,,,0.00,Wunderground v.1.12,2013-03-26 13:05:00,
2013-03-26 09:10:00,33.7,26.9,30.14,West,270,0.0,-999.0,76,0.00,,,0.00,Wunderground v.1.12,2013-03-26 13:10:00,
2013-03-26 09:16:00,33.8,27.0,30.14,WNW,284,2.0,-999.0,76,0.00,,,0.00,Wunderground v.1.12,2013-03-26 13:16:00,
2013-03-26 09:21:00,34.0,26.9,30.14,WNW,283,5.0,-999.0,75,0.00,,,0.00,Wunderground v.1.12,2013-03-26 13:21:00,
2013-03-26 09:26:00,34.3,26.9,30.15,West,270,0.0,-999.0,74,0.00,,,0.00,Wunderground v.1.12,2013-03-26 13:26:00,
2013-03-26 09:31:00,34.3,26.5,30.15,NW,325,0.0,-999.0,73,0.00,,,0.00,Wunderground v.1.12,2013-03-26 13:31:00,
2013-03-26 09:36:00,34.4,26.6,30.15,WSW,239,0.0,-999.0,73,0.00,,,0.00,Wunderground v.1.12,2013-03-26 13:36:00,
2013-03-26 09:41:00,34.7,26.6,30.15,SW,226,0.0,-999.0,72,0.00,,,0.00,Wunderground v.1.12,2013-03-26 13:41:00,
2013-03-26 09:46:00,35.0,26.5,30.15,West,277,2.0,-999.0,71,0.00,,,0.00,Wunderground v.1.12,2013-03-26 13:46:00,
2013-03-26 09:51:00,35.2,26.4,30.15,WNW,288,0.0,-999.0,70,0.00,,,0.00,Wunderground v.1.12,2013-03-26 13:51:00,
2013-03-26 09:57:00,35.3,26.5,30.16,WNW,287,0.0,-999.0,70,0.00,,,0.00,Wunderground v.1.12,2013-03-26 13:57:00,
2013-03-26 10:02:00,35.5,26.3,30.16,West,269,0.0,-999.0,69,0.00,,,0.00,Wunderground v.1.12,2013-03-26 14:02:00,
2013-03-26 10:07:00,35.5,26.0,30.16,West,269,0.0,-999.0,68,0.00,,,0.00,Wunderground v.1.12,2013-03-26 14:07:00,
2013-03-26 10:12:00,35.6,26.1,30.16,West,269,5.0,-999.0,68,0.00,,,0.00,Wunderground v.1.12,2013-03-26 14:12:00,
2013-03-26 10:17:00,35.6,26.1,30.16,North,349,0.0,-999.0,68,0.00,,,0.00,Wunderground v.1.12,2013-03-26 14:17:00,
2013-03-26 10:22:00,35.6,25.7,30.16,WNW,295,0.0,-999.0,67,0.00,,,0.00,Wunderground v.1.12,2013-03-26 14:22:00,
2013-03-26 10:27:00,35.8,25.5,30.17,WNW,284,0.0,-999.0,66,0.00,,,0.00,Wunderground v.1.12,2013-03-26 14:27:00,
2013-03-26 10:32:00,35.9,25.3,30.17,West,262,2.0,-999.0,65,0.00,,,0.00,Wunderground v.1.12,2013-03-26 14:32:00,
2013-03-26 10:37:00,35.9,25.6,30.17,West,269,8.0,-999.0,66,0.00,,,0.00,Wunderground v.1.12,2013-03-26 14:37:00,
2013-03-26 10:42:00,35.9,24.9,30.17,WNW,294,0.0,-999.0,64,0.00,,,0.00,Wunderground v.1.12,2013-03-26 14:42:00,
2013-03-26 10:47:00,36.0,25.4,30.17,North,350,0.0,-999.0,65,0.00,,,0.00,Wunderground v.1.12,2013-03-26 14:47:00,
2013-03-26 10:52:00,36.2,25.2,30.17,WNW,286,1.0,-999.0,64,0.00,,,0.00,Wunderground v.1.12,2013-03-26 14:52:00,
2013-03-26 10:57:00,36.2,24.8,30.18,West,269,0.0,-999.0,63,0.00,,,0.00,Wunderground v.1.12,2013-03-26 14:57:00,
2013-03-26 11:02:00,36.3,24.5,30.18,West,271,0.0,-999.0,62,0.00,,,0.00,Wunderground v.1.12,2013-03-26 15:02:00,
2013-03-26 11:07:00,36.6,25.2,30.18,West,281,2.0,-999.0,63,0.00,,,0.00,Wunderground v.1.12,2013-03-26 15:07:00,
2013-03-26 11:12:00,36.9,25.1,30.18,NW,317,0.0,-999.0,62,0.00,,,0.00,Wunderground v.1.12,2013-03-26 15:12:00,
2013-03-26 11:17:00,37.2,25.0,30.18,WNW,302,0.0,-999.0,61,0.00,,,0.00,Wunderground v.1.12,2013-03-26 15:17:00,
2013-03-26 11:22:00,37.5,24.9,30.18,WNW,291,0.0,-999.0,60,0.00,,,0.00,Wunderground v.1.12,2013-03-26 15:22:00,
2013-03-26 11:27:00,37.6,24.6,30.19,North,3,0.0,-999.0,59,0.00,,,0.00,Wunderground v.1.12,2013-03-26 15:27:00,
2013-03-26 11:32:00,37.8,24.7,30.19,West,269,3.0,-999.0,59,0.00,,,0.00,Wunderground v.1.12,2013-03-26 15:32:00,
2013-03-26 11:37:00,37.6,25.0,30.19,WNW,283,0.0,-999.0,60,0.00,,,0.00,Wunderground v.1.12,2013-03-26 15:37:00,
2013-03-26 11:43:00,37.5,24.9,30.19,WNW,284,0.0,-999.0,60,0.00,,,0.00,Wunderground v.1.12,2013-03-26 15:43:00,
2013-03-26 11:48:00,37.3,24.3,30.19,West,271,0.0,-999.0,59,0.00,,,0.00,Wunderground v.1.12,2013-03-26 15:48:00,
2013-03-26 11:53:00,37.3,24.3,30.19,West,270,0.0,-999.0,59,0.00,,,0.00,Wunderground v.1.12,2013-03-26 15:53:00,
2013-03-26 11:59:00,37.5,24.9,30.20,SW,235,3.0,-999.0,60,0.00,,,0.00,Wunderground v.1.12,2013-03-26 15:59:00,
2013-03-26 12:04:00,37.5,24.5,30.20,WNW,294,0.0,-999.0,59,0.00,,,0.00,Wunderground v.1.12,2013-03-26 16:04:00,
2013-03-26 12:09:00,37.8,24.7,30.20,West,277,0.0,-999.0,59,0.00,,,0.00,Wunderground v.1.12,2013-03-26 16:09:00,
2013-03-26 12:14:00,38.0,24.9,30.19,West,274,0.0,-999.0,59,0.00,,,0.00,Wunderground v.1.12,2013-03-26 16:14:00,
2013-03-26 12:19:00,38.2,24.3,30.19,West,269,3.0,-999.0,57,0.00,,,0.00,Wunderground v.1.12,2013-03-26 16:19:00,
2013-03-26 12:24:00,38.3,24.4,30.19,West,269,0.0,-999.0,57,0.00,,,0.00,Wunderground v.1.12,2013-03-26 16:24:00,
2013-03-26 12:29:00,38.3,24.4,30.20,WNW,293,0.0,-999.0,57,0.00,,,0.00,Wunderground v.1.12,2013-03-26 16:29:00,
2013-03-26 12:34:00,38.5,25.0,30.20,WNW,293,0.0,-999.0,58,0.00,,,0.00,Wunderground v.1.12,2013-03-26 16:34:00,
2013-03-26 12:39:00,38.9,25.8,30.20,WNW,290,0.0,-999.0,59,0.00,,,0.00,Wunderground v.1.12,2013-03-26 16:39:00,
2013-03-26 12:44:00,39.1,25.1,30.20,West,271,1.0,-999.0,57,0.00,,,0.00,Wunderground v.1.12,2013-03-26 16:44:00,
2013-03-26 12:49:00,39.3,24.0,30.20,WSW,243,5.0,-999.0,54,0.00,,,0.00,Wunderground v.1.12,2013-03-26 16:49:00,
2013-03-26 12:54:00,39.5,24.2,30.20,West,269,0.0,-999.0,54,0.00,,,0.00,Wunderground v.1.12,2013-03-26 16:54:00,
2013-03-26 12:59:00,39.5,23.8,30.20,NNE,14,0.0,-999.0,53,0.00,,,0.00,Wunderground v.1.12,2013-03-26 16:59:00,
2013-03-26 13:04:00,39.5,23.3,30.20,WNW,300,0.0,-999.0,52,0.00,,,0.00,Wunderground v.1.12,2013-03-26 17:04:00,
2013-03-26 13:09:00,39.3,23.6,30.20,NE,37,0.0,-999.0,53,0.00,,,0.00,Wunderground v.1.12,2013-03-26 17:09:00,
2013-03-26 13:14:00,39.3,23.6,30.20,West,276,0.0,-999.0,53,0.00,,,0.00,Wunderground v.1.12,2013-03-26 17:14:00,
2013-03-26 13:19:00,39.2,23.9,30.20,West,277,0.0,-999.0,54,0.00,,,0.00,Wunderground v.1.12,2013-03-26 17:19:00,
2013-03-26 13:24:00,39.2,23.9,30.20,West,270,0.0,-999.0,54,0.00,,,0.00,Wunderground v.1.12,2013-03-26 17:24:00,
2013-03-26 13:29:00,39.2,24.4,30.20,WNW,295,4.0,-999.0,55,0.00,,,0.00,Wunderground v.1.12,2013-03-26 17:29:00,
2013-03-26 13:34:00,39.2,23.9,30.20,NW,319,4.0,-999.0,54,0.00,,,0.00,Wunderground v.1.12,2013-03-26 17:34:00,
2013-03-26 13:39:00,39.6,24.7,30.20,West,280,0.0,-999.0,55,0.00,,,0.00,Wunderground v.1.12,2013-03-26 17:39:00,
2013-03-26 13:44:00,40.8,26.3,30.20,West,271,1.0,-999.0,56,0.00,,,0.00,Wunderground v.1.12,2013-03-26 17:44:00,
2013-03-26 13:49:00,41.1,24.3,30.20,East,101,0.0,-999.0,51,0.00,,,0.00,Wunderground v.1.12,2013-03-26 17:49:00,
2013-03-26 13:54:00,41.1,23.9,30.20,SSE,153,2.0,-999.0,50,0.00,,,0.00,Wunderground v.1.12,2013-03-26 17:54:00,
2013-03-26 13:59:00,40.8,23.6,30.20,West,273,2.0,-999.0,50,0.00,,,0.00,Wunderground v.1.12,2013-03-26 17:59:00,
2013-03-26 14:04:00,40.6,23.9,30.20,West,280,0.0,-999.0,51,0.00,,,0.00,Wunderground v.1.12,2013-03-26 18:04:00,
2013-03-26 14:09:00,40.6,23.9,30.20,West,274,7.0,-999.0,51,0.00,,,0.00,Wunderground v.1.12,2013-03-26 18:09:00,
2013-03-26 14:14:00,40.9,24.1,30.20,North,352,0.0,-999.0,51,0.00,,,0.00,Wunderground v.1.12,2013-03-26 18:14:00,
2013-03-26 14:19:00,41.1,24.3,30.20,West,281,3.0,-999.0,51,0.00,,,0.00,Wunderground v.1.12,2013-03-26 18:19:00,
2013-03-26 14:24:00,40.8,24.1,30.20,West,271,0.0,-999.0,51,0.00,,,0.00,Wunderground v.1.12,2013-03-26 18:24:00,
2013-03-26 14:30:00,40.6,24.3,30.20,NW,315,0.0,-999.0,52,0.00,,,0.00,Wunderground v.1.12,2013-03-26 18:30:00,
2013-03-26 14:35:00,40.5,24.2,30.20,West,270,0.0,-999.0,52,0.00,,,0.00,Wunderground v.1.12,2013-03-26 18:35:00,
2013-03-26 14:40:00,40.8,24.5,30.20,WNW,288,4.0,-999.0,52,0.00,,,0.00,Wunderground v.1.12,2013-03-26 18:40:00,
2013-03-26 14:45:00,40.8,24.5,30.20,West,273,0.0,-999.0,52,0.00,,,0.00,Wunderground v.1.12,2013-03-26 18:45:00,
2013-03-26 14:50:00,40.8,24.1,30.20,West,270,0.0,-999.0,51,0.00,,,0.00,Wunderground v.1.12,2013-03-26 18:50:00,
2013-03-26 14:55:00,40.8,24.1,30.20,South,180,0.0,-999.0,51,0.00,,,0.00,Wunderground v.1.12,2013-03-26 18:55:00,
2013-03-26 15:00:00,40.6,23.9,30.20,West,270,5.0,-999.0,51,0.00,,,0.00,Wunderground v.1.12,2013-03-26 19:00:00,
2013-03-26 15:05:00,40.5,23.8,30.20,NNW,343,0.0,-999.0,51,0.00,,,0.00,Wunderground v.1.12,2013-03-26 19:05:00,
2013-03-26 15:10:00,40.3,23.1,30.20,West,270,5.0,-999.0,50,0.00,,,0.00,Wunderground v.1.12,2013-03-26 19:10:00,
2013-03-26 15:15:00,40.2,23.5,30.20,West,269,0.0,-999.0,51,0.00,,,0.00,Wunderground v.1.12,2013-03-26 19:15:00,
2013-03-26 15:20:00,40.1,23.4,30.20,WNW,283,0.0,-999.0,51,0.00,,,0.00,Wunderground v.1.12,2013-03-26 19:20:00,
2013-03-26 15:25:00,40.1,23.9,30.20,West,270,0.0,-999.0,52,0.00,,,0.00,Wunderground v.1.12,2013-03-26 19:25:00,
2013-03-26 15:30:00,40.2,24.4,30.20,NW,307,1.0,-999.0,53,0.00,,,0.00,Wunderground v.1.12,2013-03-26 19:30:00,
2013-03-26 15:35:00,40.5,23.8,30.20,WNW,283,2.0,-999.0,51,0.00,,,0.00,Wunderground v.1.12,2013-03-26 19:35:00,
2013-03-26 15:40:00,40.5,23.3,30.20,West,269,0.0,-999.0,50,0.00,,,0.00,Wunderground v.1.12,2013-03-26 19:40:00,
2013-03-26 15:45:00,40.5,23.3,30.20,West,270,0.0,-999.0,50,0.00,,,0.00,Wunderground v.1.12,2013-03-26 19:45:00,
2013-03-26 15:50:00,40.5,23.8,30.20,West,267,0.0,-999.0,51,0.00,,,0.00,Wunderground v.1.12,2013-03-26 19:50:00,
2013-03-26 15:55:00,40.5,23.3,30.20,West,273,0.0,-999.0,50,0.00,,,0.00,Wunderground v.1.12,2013-03-26 19:55:00,
2013-03-26 16:00:00,40.6,23.9,30.20,West,281,0.0,-999.0,51,0.00,,,0.00,Wunderground v.1.12,2013-03-26 20:00:00,
2013-03-26 16:05:00,40.8,24.1,30.20,WNW,284,0.0,-999.0,51,0.00,,,0.00,Wunderground v.1.12,2013-03-26 20:05:00,
2013-03-26 16:10:00,40.8,24.1,30.20,West,271,0.0,-999.0,51,0.00,,,0.00,Wunderground v.1.12,2013-03-26 20:10:00,
2013-03-26 16:15:00,40.6,23.4,30.20,WNW,288,3.0,-999.0,50,0.00,,,0.00,Wunderground v.1.12,2013-03-26 20:15:00,
2013-03-26 16:20:00,40.6,23.9,30.20,West,278,0.0,-999.0,51,0.00,,,0.00,Wunderground v.1.12,2013-03-26 20:20:00,
2013-03-26 16:25:00,40.6,24.3,30.20,WSW,253,2.0,-999.0,52,0.00,,,0.00,Wunderground v.1.12,2013-03-26 20:25:00,
2013-03-26 16:30:00,40.5,24.2,30.20,WNW,291,1.0,-999.0,52,0.00,,,0.00,Wunderground v.1.12,2013-03-26 20:30:00,
2013-03-26 16:35:00,40.3,23.6,30.20,West,270,2.0,-999.0,51,0.00,,,0.00,Wunderground v.1.12,2013-03-26 20:35:00,
2013-03-26 16:40:00,40.3,24.1,30.21,West,270,0.0,-999.0,52,0.00,,,0.00,Wunderground v.1.12,2013-03-26 20:40:00,
2013-03-26 16:45:00,40.6,24.3,30.21,West,276,0.0,-999.0,52,0.00,,,0.00,Wunderground v.1.12,2013-03-26 20:45:00,
2013-03-26 16:51:00,40.5,23.3,30.21,West,270,0.0,-999.0,50,0.00,,,0.00,Wunderground v.1.12,2013-03-26 20:51:00,
2013-03-26 16:56:00,40.5,23.3,30.21,NW,312,0.0,-999.0,50,0.00,,,0.00,Wunderground v.1.12,2013-03-26 20:56:00,
2013-03-26 17:01:00,40.3,23.6,30.21,West,269,0.0,-999.0,51,0.00,,,0.00,Wunderground v.1.12,2013-03-26 21:01:00,
2013-03-26 17:07:00,40.2,24.0,30.21,West,273,2.0,-999.0,52,0.00,,,0.00,Wunderground v.1.12,2013-03-26 21:07:00,
2013-03-26 17:12:00,40.2,24.0,30.21,West,270,0.0,-999.0,52,0.00,,,0.00,Wunderground v.1.12,2013-03-26 21:12:00,
2013-03-26 17:17:00,40.3,24.1,30.21,West,273,1.0,-999.0,52,0.00,,,0.00,Wunderground v.1.12,2013-03-26 21:17:00,
2013-03-26 17:22:00,40.3,23.6,30.21,NW,319,0.0,-999.0,51,0.00,,,0.00,Wunderground v.1.12,2013-03-26 21:22:00,
2013-03-26 17:27:00,40.3,23.1,30.21,WNW,295,1.0,-999.0,50,0.00,,,0.00,Wunderground v.1.12,2013-03-26 21:27:00,
2013-03-26 17:32:00,40.2,23.5,30.21,NW,314,0.0,-999.0,51,0.00,,,0.00,Wunderground v.1.12,2013-03-26 21:32:00,
2013-03-26 17:37:00,40.2,23.5,30.21,WNW,290,1.0,-999.0,51,0.00,,,0.00,Wunderground v.1.12,2013-03-26 21:37:00,
2013-03-26 17:42:00,40.1,23.4,30.21,WNW,290,0.0,-999.0,51,0.00,,,0.00,Wunderground v.1.12,2013-03-26 21:42:00,
2013-03-26 17:47:00,40.1,23.9,30.21,West,280,5.0,-999.0,52,0.00,,,0.00,Wunderground v.1.12,2013-03-26 21:47:00,
2013-03-26 17:53:00,39.9,23.7,30.21,WNW,286,0.0,-999.0,52,0.00,,,0.00,Wunderground v.1.12,2013-03-26 21:53:00,
2013-03-26 17:58:00,39.9,23.7,30.22,West,271,2.0,-999.0,52,0.00,,,0.00,Wunderground v.1.12,2013-03-26 21:58:00,
2013-03-26 18:03:00,39.8,23.6,30.22,West,277,0.0,-999.0,52,0.00,,,0.00,Wunderground v.1.12,2013-03-26 22:03:00,
2013-03-26 18:08:00,39.8,23.1,30.22,West,260,3.0,-999.0,51,0.00,,,0.00,Wunderground v.1.12,2013-03-26 22:08:00,
2013-03-26 18:13:00,39.8,23.1,30.22,West,260,0.0,-999.0,51,0.00,,,0.00,Wunderground v.1.12,2013-03-26 22:13:00,
2013-03-26 18:18:00,39.8,23.6,30.22,WSW,243,0.0,-999.0,52,0.00,,,0.00,Wunderground v.1.12,2013-03-26 22:18:00,
2013-03-26 18:24:00,39.8,23.1,30.22,WNW,283,0.0,-999.0,51,0.00,,,0.00,Wunderground v.1.12,2013-03-26 22:24:00,
2013-03-26 18:29:00,39.8,23.6,30.23,WNW,286,0.0,-999.0,52,0.00,,,0.00,Wunderground v.1.12,2013-03-26 22:29:00,
2013-03-26 18:34:00,39.6,23.9,30.23,WNW,283,0.0,-999.0,53,0.00,,,0.00,Wunderground v.1.12,2013-03-26 22:34:00,
2013-03-26 18:39:00,39.5,23.8,30.23,WNW,294,0.0,-999.0,53,0.00,,,0.00,Wunderground v.1.12,2013-03-26 22:39:00,
2013-03-26 18:44:00,39.5,23.8,30.23,WNW,286,1.0,-999.0,53,0.00,,,0.00,Wunderground v.1.12,2013-03-26 22:44:00,
2013-03-26 18:49:00,39.3,24.0,30.23,WNW,283,0.0,-999.0,54,0.00,,,0.00,Wunderground v.1.12,2013-03-26 22:49:00,
2013-03-26 18:54:00,39.2,23.9,30.23,WNW,290,3.0,-999.0,54,0.00,,,0.00,Wunderground v.1.12,2013-03-26 22:54:00,
2013-03-26 18:59:00,39.1,24.3,30.24,SE,125,0.0,-999.0,55,0.00,,,0.00,Wunderground v.1.12,2013-03-26 22:59:00,
2013-03-26 19:04:00,39.1,24.7,30.24,West,269,0.0,-999.0,56,0.00,,,0.00,Wunderground v.1.12,2013-03-26 23:04:00,
2013-03-26 19:09:00,38.9,24.5,30.24,West,270,0.0,-999.0,56,0.00,,,0.00,Wunderground v.1.12,2013-03-26 23:09:00,
2013-03-26 19:14:00,38.8,24.4,30.24,West,267,5.0,-999.0,56,0.00,,,0.00,Wunderground v.1.12,2013-03-26 23:14:00,
2013-03-26 19:19:00,38.6,24.2,30.24,NW,325,0.0,-999.0,56,0.00,,,0.00,Wunderground v.1.12,2013-03-26 23:19:00,
2013-03-26 19:24:00,38.5,24.6,30.24,NW,307,0.0,-999.0,57,0.00,,,0.00,Wunderground v.1.12,2013-03-26 23:24:00,
2013-03-26 19:29:00,38.5,24.6,30.24,WNW,298,0.0,-999.0,57,0.00,,,0.00,Wunderground v.1.12,2013-03-26 23:29:00,
2013-03-26 19:34:00,38.3,24.4,30.24,WNW,286,0.0,-999.0,57,0.00,,,0.00,Wunderground v.1.12,2013-03-26 23:34:00,
2013-03-26 19:39:00,38.3,24.4,30.24,West,273,0.0,-999.0,57,0.00,,,0.00,Wunderground v.1.12,2013-03-26 23:39:00,
2013-03-26 19:44:00,38.2,24.3,30.25,West,270,2.0,-999.0,57,0.00,,,0.00,Wunderground v.1.12,2013-03-26 23:44:00,
2013-03-26 19:49:00,38.2,24.3,30.25,West,270,3.0,-999.0,57,0.00,,,0.00,Wunderground v.1.12,2013-03-26 23:49:00,
2013-03-26 19:54:00,38.0,24.5,30.25,WNW,301,0.0,-999.0,58,0.00,,,0.00,Wunderground v.1.12,2013-03-26 23:54:00,
2013-03-26 19:59:00,38.0,24.5,30.26,West,278,0.0,-999.0,58,0.00,,,0.00,Wunderground v.1.12,2013-03-26 23:59:00,
2013-03-26 20:04:00,37.9,24.4,30.26,West,269,0.0,-999.0,58,0.00,,,0.00,Wunderground v.1.12,2013-03-27 00:04:00,
2013-03-26 20:09:00,37.9,24.4,30.26,West,271,0.0,-999.0,58,0.00,,,0.00,Wunderground v.1.12,2013-03-27 00:09:00,
2013-03-26 20:14:00,37.8,24.3,30.26,West,273,0.0,-999.0,58,0.00,,,0.00,Wunderground v.1.12,2013-03-27 00:14:00,
2013-03-26 20:19:00,37.8,24.3,30.26,West,278,0.0,-999.0,58,0.00,,,0.00,Wunderground v.1.12,2013-03-27 00:19:00,
2013-03-26 20:24:00,37.8,24.3,30.26,West,270,0.0,-999.0,58,0.00,,,0.00,Wunderground v.1.12,2013-03-27 00:24:00,
2013-03-26 20:29:00,37.8,24.3,30.27,West,269,0.0,-999.0,58,0.00,,,0.00,Wunderground v.1.12,2013-03-27 00:29:00,
2013-03-26 20:34:00,37.8,24.3,30.27,SW,230,1.0,-999.0,58,0.00,,,0.00,Wunderground v.1.12,2013-03-27 00:34:00,
2013-03-26 20:39:00,37.6,24.1,30.27,SW,235,0.0,-999.0,58,0.00,,,0.00,Wunderground v.1.12,2013-03-27 00:39:00,
2013-03-26 20:44:00,37.6,24.1,30.27,WNW,290,0.0,-999.0,58,0.00,,,0.00,Wunderground v.1.12,2013-03-27 00:44:00,
2013-03-26 20:49:00,37.6,24.1,30.27,West,273,0.0,-999.0,58,0.00,,,0.00,Wunderground v.1.12,2013-03-27 00:49:00,
2013-03-26 20:54:00,37.6,24.6,30.27,West,269,0.0,-999.0,59,0.00,,,0.00,Wunderground v.1.12,2013-03-27 00:54:00,
2013-03-26 20:59:00,37.5,24.5,30.28,West,270,1.0,-999.0,59,0.00,,,0.00,Wunderground v.1.12,2013-03-27 00:59:00,
2013-03-26 21:05:00,37.5,24.5,30.28,West,270,0.0,-999.0,59,0.00,,,0.00,Wunderground v.1.12,2013-03-27 01:05:00,
2013-03-26 21:10:00,37.5,24.5,30.28,West,270,0.0,-999.0,59,0.00,,,0.00,Wunderground v.1.12,2013-03-27 01:10:00,
2013-03-26 21:15:00,37.3,24.3,30.28,West,269,0.0,-999.0,59,0.00,,,0.00,Wunderground v.1.12,2013-03-27 01:15:00,
2013-03-26 21:20:00,37.3,24.7,30.28,West,270,0.0,-999.0,60,0.00,,,0.00,Wunderground v.1.12,2013-03-27 01:20:00,
2013-03-26 21:25:00,37.3,24.7,30.28,West,276,0.0,-999.0,60,0.00,,,0.00,Wunderground v.1.12,2013-03-27 01:25:00,
2013-03-26 21:30:00,37.2,24.2,30.29,West,276,0.0,-999.0,59,0.00,,,0.00,Wunderground v.1.12,2013-03-27 01:30:00,
2013-03-26 21:35:00,37.2,24.2,30.29,West,274,0.0,-999.0,59,0.00,,,0.00,Wunderground v.1.12,2013-03-27 01:35:00,
2013-03-26 21:40:00,37.2,23.8,30.29,NNW,329,1.0,-999.0,58,0.00,,,0.00,Wunderground v.1.12,2013-03-27 01:40:00,
2013-03-26 21:45:00,37.0,23.6,30.29,North,3,0.0,-999.0,58,0.00,,,0.00,Wunderground v.1.12,2013-03-27 01:45:00,
2013-03-26 21:50:00,37.0,23.2,30.29,West,262,0.0,-999.0,57,0.00,,,0.00,Wunderground v.1.12,2013-03-27 01:50:00,
2013-03-26 21:55:00,37.0,23.2,30.29,West,270,0.0,-999.0,57,0.00,,,0.00,Wunderground v.1.12,2013-03-27 01:55:00,
2013-03-26 22:00:00,36.9,22.7,30.29,NW,325,0.0,-999.0,56,0.00,,,0.00,Wunderground v.1.12,2013-03-27 02:00:00,
2013-03-26 22:05:00,36.9,22.2,30.29,West,271,0.0,-999.0,55,0.00,,,0.00,Wunderground v.1.12,2013-03-27 02:05:00,
2013-03-26 22:10:00,36.8,22.1,30.29,WSW,247,0.0,-999.0,55,0.00,,,0.00,Wunderground v.1.12,2013-03-27 02:10:00,
2013-03-26 22:15:00,36.6,21.9,30.29,West,270,0.0,-999.0,55,0.00,,,0.00,Wunderground v.1.12,2013-03-27 02:15:00,
2013-03-26 22:20:00,36.5,22.3,30.29,West,270,0.0,-999.0,56,0.00,,,0.00,Wunderground v.1.12,2013-03-27 02:20:00,
2013-03-26 22:25:00,36.5,22.3,30.30,West,270,0.0,-999.0,56,0.00,,,0.00,Wunderground v.1.12,2013-03-27 02:25:00,
2013-03-26 22:31:00,36.3,22.1,30.30,West,270,0.0,-999.0,56,0.00,,,0.00,Wunderground v.1.12,2013-03-27 02:31:00,
2013-03-26 22:36:00,36.2,22.0,30.30,West,270,0.0,-999.0,56,0.00,,,0.00,Wunderground v.1.12,2013-03-27 02:36:00,
2013-03-26 22:41:00,36.0,22.2,30.30,West,270,0.0,-999.0,57,0.00,,,0.00,Wunderground v.1.12,2013-03-27 02:41:00,
2013-03-26 22:46:00,35.9,22.5,30.30,West,270,0.0,-999.0,58,0.00,,,0.00,Wunderground v.1.12,2013-03-27 02:46:00,
2013-03-26 22:52:00,35.8,22.5,30.30,WNW,297,0.0,-999.0,58,0.00,,,0.00,Wunderground v.1.12,2013-03-27 02:52:00,
2013-03-26 22:57:00,35.8,22.5,30.30,WNW,291,0.0,-999.0,58,0.00,,,0.00,Wunderground v.1.12,2013-03-27 02:57:00,
2013-03-26 23:02:00,35.6,22.3,30.30,WNW,291,0.0,-999.0,58,0.00,,,0.00,Wunderground v.1.12,2013-03-27 03:02:00,
2013-03-26 23:07:00,35.5,22.6,30.30,WNW,287,0.0,-999.0,59,0.00,,,0.00,Wunderground v.1.12,2013-03-27 03:07:00,
2013-03-26 23:12:00,35.5,22.6,30.30,WNW,287,0.0,-999.0,59,0.00,,,0.00,Wunderground v.1.12,2013-03-27 03:12:00,
2013-03-26 23:17:00,35.3,22.4,30.30,WNW,287,0.0,-999.0,59,0.00,,,0.00,Wunderground v.1.12,2013-03-27 03:17:00,
2013-03-26 23:22:00,35.2,22.3,30.30,WNW,286,0.0,-999.0,59,0.00,,,0.00,Wunderground v.1.12,2013-03-27 03:22:00,
2013-03-26 23:27:00,35.0,22.5,30.31,WNW,286,0.0,-999.0,60,0.00,,,0.00,Wunderground v.1.12,2013-03-27 03:27:00,
2013-03-26 23:32:00,35.0,22.5,30.31,WNW,284,0.0,-999.0,60,0.00,,,0.00,Wunderground v.1.12,2013-03-27 03:32:00,
2013-03-26 23:37:00,34.9,22.4,30.31,WNW,286,0.0,-999.0,60,0.00,,,0.00,Wunderground v.1.12,2013-03-27 03:37:00,
2013-03-26 23:42:00,34.7,22.2,30.31,WNW,286,0.0,-999.0,60,0.00,,,0.00,Wunderground v.1.12,2013-03-27 03:42:00,
2013-03-26 23:47:00,34.6,22.5,30.31,WNW,284,0.0,-999.0,61,0.00,,,0.00,Wunderground v.1.12,2013-03-27 03:47:00,
2013-03-26 23:53:00,34.4,22.3,30.31,WNW,284,0.0,-999.0,61,0.00,,,0.00,Wunderground v.1.12,2013-03-27 03:53:00,
2013-03-26 23:58:00,34.3,22.2,30.31,WNW,284,0.0,-999.0,61,0.00,,,0.00,Wunderground v.1.12,2013-03-27 03:58:00,